Regional Weather Roundup
Issued by NWS

Home | Current Version | Previous Version | Text Only | Print | Product List | Glossary On
Versions: 1 2 3 4 5 6 7 8 9 10 11 12 13 14 15 16 17 18 19 20 21 22 23 24 25 26 27 28 29 30 31 32 33 34 35 36 37 38 39 40 41 42 43 44 45 46 47 48 49 50
000
ASUS43 KBIS 211010
RWRND

NORTH DAKOTA REGIONAL WEATHER ROUNDUP
NATIONAL WEATHER SERVICE BISMARCK ND
500 AM CDT MON AUG 21 2017

NOTE: "FAIR" INDICATES FEW OR NO CLOUDS BELOW 12,000 FEET WITH NO
SIGNIFICANT WEATHER AND/OR OBSTRUCTIONS TO VISIBILITY.


NDZ001>003-009>011-017-211100-
NORTHWEST NORTH DAKOTA

CITY           SKY/WX    TMP DP  RH WIND       PRES   REMARKS
WILLISTON      MOCLDY    59  47  64 S3        29.95S
MINOT          CLOUDY    58  49  72 E3        29.97S
MINOT AFB      MOCLDY    60  48  64 NE6       29.96F
$$

NDZ018>021-031>035-040>046-211100-
SOUTHWEST NORTH DAKOTA

CITY           SKY/WX    TMP DP  RH WIND       PRES   REMARKS
BISMARCK       CLOUDY    57  53  86 NW17      30.04F
DICKINSON      CLEAR     55  46  71 SE7       29.97F
GARRISON         N/A     60  53  77 S14G21    29.95F
HETTINGER ARPT MOCLDY    54  49  83 N7        30.00R
$$

NDZ004>008-012>016-024-026-027-054-211100-
NORTHEAST NORTH DAKOTA

CITY           SKY/WX    TMP DP  RH WIND       PRES   REMARKS
GRAND FORKS    PTCLDY    56  51  84 SE3       29.98F
GRND FRKS AFB  CLOUDY    53  50  87 CALM      29.99S
DEVILS LAKE    LGT RAIN  61  55  81 S12       29.97F
$$

NDZ022-023-025-028>030-036>039-047>053-211100-
SOUTHEAST NORTH DAKOTA

CITY           SKY/WX    TMP DP  RH WIND       PRES   REMARKS
FARGO          CLOUDY    61  56  83 S5        30.01R
JAMESTOWN      CLOUDY    56  54  93 CALM      29.99F
$$




USA.gov is the U.S. government's official web portal to all federal, state and local government web resources and services.